CAPE
2025 1945 1902 1893 1885 1884 1864 1751 1673 1616 1438 1275 1269 1316 1340 1350 1117 832 806 806 923 1051 1211 1277 1308 1300 1170 1075 1134 1107 1093 1085 1083 1111 1061 1179 1257 1277 1269 1204 1242 1301
2119 1980 2003 2037 2030 1956 1875 1782 1776 1762 1689 1516 1469 1393 1422 1369 1405 1222 1022 975 952 958 1064 1250 1320 1349 1332 1224 1180 1181 1220 1239 1227 1231 1214 1255 1356 1405 1394 1349 1370 1370
2204 2084 2036 2047 2052 2009 1931 1905 1887 1892 1849 1685 1525 1554 1580 1579 1595 1546 1458 1394 1386 1367 1365 1353 1312 1361 1399 1427 1429 1395 1306 1372 1385 1407 1419 1470 1543 1509 1462 1432 1437 1438
2223 2213 2194 2157 2118 2109 2099 2042 2016 2017 1957 1755 1618 1538 1564 1596 1592 1520 1430 1387 1378 1511 1569 1575 1539 1384 1404 1414 1295 1123 1024 1282 1542 1578 1618 1633 1600 1543 1542 1532 1487 1431
2118 2164 2176 2167 2169 2194 2207 2147 2076 2052 1995 1866 1620 1404 1348 1351 1314 1346 1319 1295 1385 1403 1536 1520 1474 1524 1462 1344 1380 1289 1207 1276 1427 1442 1442 1453 1488 1481 1506 1472 1441 1457
2164 2196 2231 2230 2206 2213 2204 2148 1984 1919 1890 1802 1704 1524 1439 1171 1092 1144 1240 1393 1534 1522 1433 1261 1231 1646 1644 1593 1565 1505 1504 1547 1563 1670 1595 1628 1585 1516 1476 1519 1561 1590
2259 2288 2310 2299 2244 2179 2136 2084 1984 1905 1800 1682 1362 1212 1333 952 949 1130 1225 1429 1542 1638 1572 1443 1324 1459 1596 1566 1632 1695 1726 1753 1792 1738 1703 1694 1671 1588 1510 1547 1601 1570
2170 2222 2278 2286 2243 2193 2113 2054 1968 1859 1872 1401 1272 1042 721 874 995 1231 1385 1445 1596 1614 1603 1593 1562 1646 1681 1655 1618 1632 1693 1745 1809 1828 1798 1757 1692 1635 1596 1576 1606 1564
2226 2260 2273 2239 2190 2159 2112 2042 1984 1876 1740 1614 1420 1181 866 993 954 1222 1455 1538 1809 1735 1758 1817 1765 1677 1598 1540 1508 1623 1760 1852 1889 1822 1770 1793 1614 1515 1378 1457 1523 1470
2240 2218 2127 2070 2045 2070 2063 2021 1987 1913 1784 1749 1659 1510 1226 1197 1375 1333 1549 1748 1856 1872 1968 1931 1788 1660 1629 1632 1669 1794 1928 1950 1907 1836 1734 1669 1437 1212 1125 1131 1141 1188
2015 1925 1817 1910 1985 2022 2050 2031 2024 1922 1766 1302 1216 1226 1447 1416 1553 1579 1484 1372 1765 1860 1714 1758 1790 1753 1741 1796 1854 1908 1909 1910 1895 1793 1734 1588 1330 1043 805 741 900 922
1899 1848 1817 1890 1955 2004 2032 2034 2043 1748 1582 1225 703 832 845 1018 1617 1536 1505 1456 1495 1643 1613 1652 1700 1702 1653 1627 1740 1827 1863 1758 1715 1671 1615 1464 1364 1163 713 515 741 879
1942 1911 1853 1856 1855 1855 1871 1906 1932 1709 1341 932 742 651 470 650 1016 1544 1509 1393 1365 1507 1552 1525 1609 1621 1588 1527 1562 1677 1630 1627 1578 1526 1438 1350 1255 1108 755 508 604 708
1810 1834 1839 1862 1873 1869 1856 1834 1835 1675 1193 688 510 360 451 568 933 1310 1488 1437 1335 1411 1432 1409 1345 1411 1517 1476 1374 1248 1327 1440 1500 1426 1329 1242 1160 1010 482 395 561 599
1799 1838 1843 1856 1880 1886 1851 1834 1823 1621 1019 580 426 402 386 516 869 1294 1462 1517 1490 1485 1483 1437 1294 1131 1192 1156 1082 998 925 1167 1200 1150 1154 1034 1012 791 530 253 381 409
1873 1847 1804 1808 1837 1857 1851 1848 1839 1667 1022 583 502 433 571 667 956 1332 1412 1404 1407 1376 1341 1312 1229 1172 1162 1132 1043 877 872 926 837 1023 1108 1007 1000 878 613 260 0 109
1828 1765 1740 1779 1836 1873 1894 1915 1958 1802 1031 655 684 658 652 736 1025 1405 1417 1323 1176 1162 1222 1294 1315 1248 1197 1120 1030 975 871 789 713 772 849 821 813 735 543 398 227 150
1678 1638 1723 1853 1922 1968 2006 2104 2143 1948 1077 691 688 660 634 769 1225 1542 1564 1516 1466 1346 1124 1018 1092 1118 1112 1053 992 967 925 819 677 757 760 764 689 632 544 427 285 258
1388 1524 1717 1888 1998 2065 2136 2193 2174 1873 1059 664 656 706 786 973 1295 1546 1604 1547 1499 1438 1250 869 869 1049 1071 1020 949 832 714 644 632 611 691 644 584 527 466 0 0 0
1200 1355 1499 1609 1683 1691 1619 1581 1612 1402 936 624 576 623 796 1072 1306 1463 1526 1468 1412 1364 1220 832 691 796 846 847 786 698 643 651 655 621 576 520 498 445 286 0 0 0
894 1101 1231 1245 1212 1145 1090 1033 933 783 793 778 803 895 1024 1232 1354 1489 1532 1420 1374 1352 1306 1146 890 738 661 685 689 700 715 682 662 597 544 491 429 279 0 0 0 0
654 772 799 745 678 656 630 608 564 624 679 691 733 831 976 1168 1358 1451 1478 1387 1414 1449 1416 1320 1123 834 644 694 738 772 761 710 622 517 474 418 360 89 173 53 0 0
652 723 767 792 545 0 236 489 571 692 738 764 816 919 1043 1210 1325 1401 1398 1357 1356 1353 1351 1342 1274 1111 839 736 802 752 721 685 574 410 342 343 343 313 258 166 0 0
753 792 845 715 36 0 172 322 408 637 872 962 1018 1080 1195 1328 1397 1417 1348 1292 1297 1347 1401 1474 1456 1300 1077 847 716 723 714 654 493 325 261 47 53 0 85 106 0 0
879 898 939 558 17 380 319 239 283 693 935 1049 1139 1233 1350 1432 1459 1418 1335 1294 1325 1389 1436 1453 1439 1396 1292 1137 910 737 699 696 660 521 396 146 276 158 0 0 0 18
949 958 908 395 78 469 341 269 399 761 928 1036 1146 1249 1376 1449 1429 1349 1269 1245 1220 1220 1249 1252 1262 1261 1256 1193 1065 757 744 726 666 562 476 426 212 0 0 0 0 0
Wind_Speed
13 14 14 13 12 11 11 12 12 12 12 15 16 15 16 14 16 14 13 14 14 14 15 16 17 17 16 17 18 19 19 18 17 18 17 16 16 17 16 16 17 17
13 13 13 12 11 10 10 12 13 14 14 17 15 13 14 16 14 15 14 14 16 16 16 17 17 17 18 19 21 21 20 20 19 21 20 19 18 19 18 18 19 20
15 15 14 14 13 11 11 12 14 15 18 17 14 18 18 14 13 15 16 17 17 17 16 16 17 18 19 21 24 24 23 21 20 22 23 21 22 22 21 22 23 23
16 17 17 16 16 14 12 13 15 16 18 17 14 19 18 13 15 17 16 17 20 20 16 15 16 18 18 21 24 22 22 22 21 24 23 24 25 25 25 26 26 27
16 15 16 17 18 17 16 15 15 16 16 17 16 20 17 13 15 15 15 16 19 15 15 17 18 17 18 20 23 22 22 22 23 25 25 25 26 28 28 30 30 30
15 16 16 17 19 19 18 17 17 17 17 18 22 23 17 13 12 13 13 16 16 13 15 17 17 17 18 18 20 19 21 22 24 27 27 27 28 30 31 31 32 32
16 16 16 18 19 19 19 19 19 19 19 21 31 22 14 10 8 7 11 16 18 16 16 18 18 17 17 17 17 17 18 20 23 25 26 27 29 30 31 32 32 32
17 17 17 18 19 20 20 21 22 22 20 27 28 26 21 16 12 9 12 17 20 19 18 19 19 19 19 18 18 18 18 20 21 23 24 25 28 28 30 30 31 31
20 20 20 20 20 21 21 22 24 24 24 24 24 26 29 25 19 16 19 23 22 20 20 20 19 19 20 20 19 19 19 19 20 22 23 24 28 29 28 28 29 29
22 22 22 22 22 22 22 23 25 25 25 24 24 27 27 24 25 27 29 26 22 21 21 21 19 18 18 18 18 19 19 19 20 21 25 29 28 27 28 28 29 33
23 23 24 24 24 23 23 26 30 32 31 30 31 27 25 26 25 28 28 25 20 20 21 20 20 19 17 16 17 19 20 21 22 23 27 26 25 27 31 31 32 35
23 23 24 25 26 27 30 31 29 30 30 31 31 27 24 23 25 26 24 22 19 17 18 19 21 21 19 18 18 19 20 22 23 24 27 28 28 30 31 32 34 35
22 23 24 27 30 32 31 32 30 28 28 28 28 28 24 17 15 20 20 19 18 18 17 18 19 20 21 20 20 20 22 24 24 26 28 30 30 29 29 30 33 33
21 22 25 29 32 33 32 31 29 27 27 26 25 22 21 16 12 16 18 18 17 18 17 17 18 20 21 20 20 21 23 24 26 28 30 30 29 28 28 30 33 34
21 22 25 29 31 31 29 27 26 25 24 23 21 19 20 20 18 18 19 18 18 18 18 19 19 19 21 22 24 25 27 28 24 24 28 30 30 28 26 29 31 33
23 24 25 27 29 28 26 25 24 21 19 19 20 19 20 22 21 18 18 20 20 20 20 19 19 21 21 23 26 26 28 27 25 24 26 28 30 29 26 28 nan 32
26 25 25 27 27 26 24 22 21 19 18 19 20 20 20 22 22 18 17 19 22 23 21 19 18 20 20 23 27 26 26 25 24 24 26 29 30 30 28 27 28 30
27 27 26 25 26 25 22 20 20 19 18 19 19 18 18 20 19 17 17 20 22 23 22 20 19 18 19 23 26 26 26 25 25 27 28 28 29 29 30 28 27 28
27 28 26 25 24 23 22 20 20 20 20 21 19 18 20 19 17 17 17 20 23 23 21 21 20 19 21 23 26 27 27 27 26 28 29 30 32 33 31 nan nan nan
27 27 27 25 23 22 21 20 20 20 21 21 22 24 21 19 19 18 19 22 23 24 23 22 22 21 23 25 27 28 28 28 28 30 30 31 33 32 29 nan nan nan
26 26 25 25 24 23 22 21 20 21 22 22 22 22 21 20 20 20 20 22 23 24 25 23 22 24 25 27 29 31 31 31 31 30 30 31 31 30 nan nan nan nan
26 25 24 23 23 23 22 22 22 22 22 22 22 21 21 21 21 22 21 22 22 24 25 23 23 25 27 28 30 33 34 32 32 30 30 29 30 nan 28 nan nan nan
26 25 24 22 22 nan 21 22 23 23 23 25 24 23 23 22 21 22 22 22 23 24 24 23 23 26 28 29 31 34 34 31 31 30 29 30 29 30 28 28 nan nan
28 26 25 24 nan nan 20 20 22 23 24 25 24 24 22 22 22 22 24 26 26 24 24 24 23 27 29 29 31 32 33 33 31 30 29 nan nan nan nan 27 nan nan
30 27 25 25 nan 20 21 21 22 23 23 23 23 24 24 26 28 26 25 25 25 25 25 24 24 27 30 30 31 31 30 30 31 30 28 27 27 26 nan nan nan nan
32 28 25 25 nan 23 24 25 25 24 23 23 22 25 28 29 28 28 27 25 25 24 24 22 22 24 27 28 29 29 29 29 29 30 27 26 26 nan nan nan nan nan
Wind_Direction
323 318 320 316 313 310 306 303 294 284 271 260 259 260 269 267 264 264 263 260 254 250 248 247 248 251 254 255 256 255 257 261 262 264 264 263 258 259 261 262 262 266
321 314 307 303 301 296 293 293 291 285 276 268 270 271 264 263 271 273 267 258 252 249 247 248 252 257 259 259 256 255 252 251 251 252 254 255 254 255 255 255 255 255
314 311 307 303 300 297 294 284 278 278 278 284 285 267 262 265 265 262 260 257 254 250 249 253 257 261 262 259 258 258 255 251 249 250 253 253 252 252 250 251 250 251
310 311 307 302 297 294 287 280 273 273 276 278 279 270 267 264 259 256 255 256 255 252 254 259 262 260 259 259 261 262 259 259 258 258 258 254 253 253 251 251 250 250
306 302 296 294 294 294 289 284 280 278 281 283 276 268 271 265 262 262 263 262 268 279 275 263 258 258 260 261 264 265 265 264 263 264 265 263 261 261 259 259 258 257
298 294 291 289 289 291 291 288 284 282 282 282 279 265 256 251 255 270 277 280 287 287 274 268 264 258 261 263 267 270 271 271 269 269 267 267 266 265 264 263 261 259
303 292 290 287 284 284 285 283 280 280 280 277 266 272 263 259 254 271 281 284 285 281 276 275 276 275 273 272 273 273 272 272 271 272 271 268 268 268 266 266 266 264
307 295 289 283 282 278 277 275 274 274 272 267 278 288 299 300 306 292 276 275 275 278 281 284 287 289 286 283 283 279 276 271 273 273 273 271 271 271 270 269 269 269
307 303 296 291 286 278 274 271 268 267 265 270 277 284 286 297 301 295 280 273 274 277 278 281 286 286 283 284 284 284 283 277 274 273 271 270 262 259 260 265 268 268
308 306 304 300 294 285 279 272 272 268 263 265 265 264 272 278 282 281 277 278 282 281 278 279 284 287 285 284 285 282 278 275 269 268 264 262 266 270 270 266 267 264
307 308 310 308 304 294 286 270 261 260 256 244 232 238 256 268 267 270 275 281 289 289 286 282 281 281 280 280 282 281 280 275 271 269 270 276 275 270 269 271 271 271
309 310 314 312 304 290 279 275 275 272 278 279 265 237 215 235 262 269 275 277 278 276 278 277 273 272 275 282 288 285 282 279 278 275 276 276 275 272 276 281 279 276
315 317 313 307 301 300 296 290 287 284 285 290 280 266 249 228 230 269 275 278 278 273 271 272 272 272 276 281 284 283 284 283 277 276 279 281 282 281 280 284 283 281
317 313 312 310 305 304 305 303 297 291 286 283 279 272 272 283 296 289 285 278 273 269 268 269 270 274 278 280 279 278 279 277 279 284 286 285 285 284 285 286 286 283
307 310 314 314 311 309 309 304 298 296 291 282 280 272 258 272 285 288 286 282 274 271 269 268 272 273 273 275 272 266 262 260 259 269 282 284 281 282 285 286 285 283
307 312 321 321 315 312 311 302 292 293 292 281 279 275 269 270 277 280 285 288 282 275 270 268 268 266 268 276 275 270 271 272 271 274 280 284 284 280 282 287 nan 285
307 317 322 327 322 313 308 303 294 290 288 284 284 280 274 273 277 283 289 288 285 281 277 273 267 265 272 277 283 287 279 278 280 283 283 285 285 290 290 290 288 286
310 315 323 329 320 315 312 305 291 282 280 281 283 283 277 270 275 285 290 286 282 280 279 276 270 268 274 279 287 291 287 281 279 279 280 283 285 283 278 278 283 284
306 313 321 324 325 317 308 301 294 286 282 279 285 286 279 284 285 279 283 283 284 285 283 280 274 277 284 287 292 295 295 284 275 276 281 282 281 284 286 nan nan nan
303 309 316 324 321 310 303 299 291 288 285 283 279 278 286 289 283 283 280 283 286 287 287 284 282 285 294 294 295 297 295 286 274 277 280 284 286 288 290 nan nan nan
299 306 314 317 315 309 303 298 292 284 283 282 282 286 290 292 289 284 280 280 284 288 290 289 286 294 298 297 296 297 295 286 275 278 281 282 286 289 nan nan nan nan
295 302 309 312 312 308 305 302 297 295 292 283 278 277 278 278 276 275 278 282 286 290 289 287 282 296 299 296 293 292 290 277 275 277 280 282 284 nan 285 nan nan nan
287 295 302 306 307 nan 311 309 305 299 292 285 282 281 283 287 291 291 288 286 283 281 286 288 286 293 297 292 289 289 283 275 275 276 278 283 287 286 288 289 nan nan
282 289 295 298 nan nan 318 313 306 299 297 295 294 290 289 291 289 286 279 279 282 284 288 288 284 286 295 293 293 291 285 277 276 278 280 nan nan nan nan 288 nan nan
277 280 285 291 nan 309 309 310 311 308 305 303 301 295 291 282 276 280 284 285 285 286 290 291 283 283 295 297 296 293 287 279 280 278 280 281 283 286 nan nan nan nan
268 272 277 284 nan 294 297 301 307 311 311 310 304 297 290 287 289 291 293 292 291 289 287 289 285 281 288 296 292 292 293 281 277 279 280 280 280 nan nan nan nan nan